CAPE
0 1 3 0 0 0 0 0 0 0 0 0 0 0 0 0 0 0 0 0 0 0 49 0 0 0 0 106 347 539 519 87 38 14 0 0 0 0 0 0 0 0 0 0
0 0 0 0 0 0 0 0 0 0 0 0 0 0 0 0 0 0 0 0 0 0 0 0 0 0 0 0 0 0 0 0 0 0 0 0 0 0 2 7 0 0 0 0
0 0 0 0 0 0 0 0 0 0 0 0 0 0 0 0 0 0 0 0 0 0 0 0 0 0 0 0 0 0 0 0 0 0 0 0 0 0 0 0 0 0 0 0
0 0 0 0 0 0 0 0 0 0 0 12 0 111 0 0 0 0 0 0 0 0 0 0 0 0 0 0 0 0 0 0 0 0 0 0 0 0 0 0 0 0 0 0
0 0 0 0 0 0 0 0 0 0 0 0 0 0 0 0 0 0 0 0 0 0 0 0 0 0 0 0 0 0 0 0 0 0 0 0 0 0 0 0 0 0 0 0
0 0 0 0 0 0 0 0 0 0 32 38 64 23 140 3 0 0 0 0 0 0 0 0 0 0 0 0 0 0 0 0 0 0 0 0 0 0 0 0 0 0 0 0
0 0 0 0 0 0 0 1 152 215 155 227 0 0 53 0 0 0 0 0 0 0 0 0 0 0 2 1 0 0 0 0 0 0 0 0 0 0 1 1 1 0 0 0
0 16 0 0 0 0 0 0 117 3 51 77 0 0 17 0 0 0 0 0 0 0 0 0 0 0 4 6 7 0 0 0 0 5 5 5 11 8 6 4 2 0 0 0
0 0 0 0 0 0 4 2 0 0 0 0 0 3 0 0 0 0 0 0 0 0 0 0 1 10 13 11 3 0 1 0 0 8 26 23 17 19 13 3 0 0 0 0
0 6 0 0 0 0 0 0 29 9 0 0 11 0 58 2 0 18 2 2 0 0 1 6 7 13 12 3 1 8 15 21 25 15 21 19 15 18 5 0 0 2 9 29
0 0 0 0 0 0 2 6 0 0 0 1 0 0 9 2 0 0 0 1 0 4 7 15 17 12 27 24 17 19 16 14 13 13 13 13 12 8 5 8 13 27 35 27
0 0 0 0 0 0 0 0 0 0 0 4 1 0 0 0 0 0 8 11 8 7 24 22 24 25 21 14 15 16 7 5 9 8 1 0 5 12 22 25 28 41 22 42
0 0 0 0 0 0 0 1 0 0 0 0 110 3 5 5 13 12 29 13 24 25 26 11 11 11 8 9 10 2 6 7 3 0 0 3 19 25 24 36 28 40 46 50
0 0 0 0 0 0 0 0 0 3 7 7 6 36 28 23 15 3 11 22 27 18 10 7 14 17 14 1 1 6 10 3 1 2 4 10 23 13 31 43 41 34 33 36
0 0 0 0 0 0 0 0 0 0 3 32 0 24 45 31 2 2 14 15 19 18 10 12 12 7 0 0 2 13 3 5 1 3 8 15 22 21 17 35 30 19 17 8
0 0 0 0 0 0 0 0 0 0 0 17 29 27 29 0 12 14 21 15 15 17 10 0 0 1 0 4 24 11 10 2 0 3 8 19 20 12 22 19 18 11 3 1
0 0 0 0 0 0 0 0 0 1 17 16 28 36 26 22 31 4 12 5 29 3 0 0 0 2 6 18 20 6 5 3 3 9 19 16 7 12 15 9 4 4 5 9
0 0 0 1 0 2 1 0 0 0 0 5 12 16 15 24 9 3 5 0 3 0 1 7 4 4 4 9 21 14 7 8 20 34 28 11 16 14 16 9 9 11 18 23
0 2 0 7 3 0 0 0 0 0 0 1 4 20 19 28 22 20 0 3 6 9 4 5 6 0 0 24 47 35 30 36 31 28 30 28 4 20 15 8 15 24 32 39
0 1 17 13 23 16 5 13 0 0 11 10 12 19 19 20 27 18 0 1 0 0 10 19 23 8 25 31 38 51 49 53 53 30 14 8 8 7 12 10 22 30 39 34
0 2 17 9 23 4 0 0 0 19 47 34 23 5 4 14 21 16 9 12 16 26 33 33 36 38 33 8 12 39 59 76 45 29 10 16 13 8 9 11 33 35 38 60
0 3 4 8 4 4 1 11 34 52 22 13 1 1 1 10 25 24 25 24 19 18 19 28 32 25 8 10 22 37 58 59 102 101 83 75 18 8 9 25 38 36 24 32
0 1 26 29 21 42 35 16 46 11 46 11 2 0 15 23 17 13 15 12 9 4 7 9 7 11 11 12 16 25 38 40 38 73 83 50 23 13 25 31 40 29 24 19
0 6 36 34 1 19 42 35 10 4 1 0 0 7 8 15 5 4 4 0 0 0 0 1 10 18 22 26 25 27 31 17 10 8 13 25 30 23 24 27 27 19 14 11
2 18 28 62 40 24 31 0 0 2 0 11 4 2 3 0 2 0 0 0 0 0 2 6 18 33 39 39 35 40 7 12 6 10 10 22 36 28 18 8 19 7 8 1
0 8 79 40 41 0 7 0 0 14 9 2 0 0 0 1 0 0 0 1 3 6 10 24 27 39 46 45 33 2 13 10 7 3 5 22 24 17 4 6 5 0 0 0
CIN
0 0 -2 0 0 0 0 0 0 0 0 0 0 0 0 0 0 0 0 0 0 0 -17 0 0 0 0 -80 -46 -31 -30 -137 -97 -97 0 0 0 0 0 -16 -3 -17 0 0
0 0 0 0 0 0 0 0 0 0 0 0 0 0 0 0 0 0 0 0 0 0 0 0 0 0 0 0 0 0 0 0 0 0 0 0 0 -2 -62 -41 0 0 0 0
0 0 0 0 0 0 0 0 0 0 0 0 0 0 0 0 0 0 0 0 0 0 0 0 0 0 0 0 0 0 0 0 0 0 0 0 0 -26 0 0 0 0 0 0
0 0 0 0 0 0 0 0 0 0 0 -1 0 0 0 0 0 0 0 0 0 0 0 0 0 0 0 0 0 0 0 0 0 0 0 0 0 0 0 0 0 0 0 0
0 0 0 0 0 0 0 0 0 0 0 0 0 0 0 0 0 0 0 0 0 0 0 0 0 0 0 0 0 0 0 0 0 0 0 0 0 0 0 0 0 0 0 0
0 0 0 0 0 0 0 0 0 0 -37 -20 -1 -20 0 -2 0 0 0 0 0 0 0 0 0 0 0 0 0 0 0 0 0 0 0 0 0 0 0 0 0 0 0 0
0 0 0 0 0 0 0 -2 0 0 0 0 0 0 -1 0 0 0 0 0 0 0 0 0 0 0 0 0 0 0 0 0 0 0 0 0 0 0 0 0 0 0 0 0
0 -8 0 0 0 0 0 0 -8 -12 0 0 0 0 -1 0 0 0 0 0 0 0 0 0 0 0 0 0 0 0 0 0 0 0 0 0 0 0 0 0 0 0 0 0
0 0 0 0 0 0 -1 -5 0 0 0 0 0 0 0 0 0 0 0 0 0 0 0 0 0 0 0 0 0 0 0 0 0 0 0 0 0 0 0 0 0 0 0 0
0 -4 0 0 0 0 0 0 -5 -4 0 0 -1 0 -1 -10 0 -1 0 0 0 0 0 0 0 0 0 0 0 0 0 0 -1 -1 -2 0 0 0 0 0 0 0 0 0
0 0 0 0 0 0 0 0 0 0 0 0 0 0 -5 -1 0 0 0 0 0 0 0 0 -1 -6 -1 -2 -1 0 0 0 0 0 0 0 0 0 0 0 0 0 0 0
0 0 0 0 0 0 0 0 0 0 0 0 0 0 0 0 0 0 0 0 0 0 0 -1 0 0 -6 -3 0 0 0 0 0 0 0 0 0 0 0 0 0 0 0 0
0 0 0 0 0 0 0 0 0 0 0 0 0 0 -8 -5 -3 -1 -1 -1 0 0 0 -1 -2 -1 -1 -1 -1 0 0 0 0 0 0 0 0 0 0 0 0 -1 0 0
0 0 0 0 0 0 0 0 0 0 0 0 0 0 0 -2 -1 0 0 -1 0 0 -2 -1 0 0 0 0 0 0 0 0 0 0 0 0 0 0 0 0 0 0 0 0
0 0 0 0 0 0 0 0 0 0 0 0 0 0 -1 0 -1 0 0 0 0 0 -1 0 0 0 0 0 0 0 0 0 0 0 0 0 -1 0 0 0 0 0 0 0
0 0 0 0 0 0 0 0 0 0 0 0 0 0 -1 0 -1 0 -1 -1 -2 0 0 0 0 0 0 0 0 0 0 0 0 0 0 0 0 0 0 0 0 0 0 0
0 0 0 0 0 0 0 0 0 0 0 0 0 0 0 0 0 -10 -3 -25 0 0 0 0 0 0 0 0 0 0 0 0 0 0 0 0 -4 0 0 0 0 0 0 0
0 0 0 0 0 0 -3 0 0 0 0 0 0 0 0 -1 -3 -1 -2 0 0 0 0 0 0 0 0 0 0 0 0 0 0 0 0 -2 0 0 0 0 0 0 0 0
0 0 0 0 0 0 0 0 0 0 0 0 0 0 0 0 0 0 0 0 0 0 0 0 0 0 0 0 0 0 0 0 0 0 0 0 0 0 0 0 0 0 0 0
0 0 0 0 0 0 -2 0 0 0 0 0 -2 0 0 0 0 0 0 0 0 0 0 0 0 0 0 0 0 0 0 0 0 -1 0 -1 0 0 0 0 0 0 0 0
0 0 0 0 0 0 0 0 0 0 0 0 -1 -16 -7 0 0 0 -7 0 0 0 0 0 0 0 0 0 0 0 0 0 -1 -1 -3 0 -2 -1 0 0 0 0 0 0
0 0 0 0 0 0 -3 -12 -2 0 -4 -1 -16 -2 0 0 0 0 0 0 0 0 0 -1 0 0 0 0 0 0 0 0 0 0 0 0 -1 0 0 0 0 0 0 0
0 0 0 0 0 0 -4 -2 0 -3 0 0 0 0 0 0 0 0 0 0 0 -1 0 0 0 0 0 0 0 0 -1 -1 -2 0 0 0 -6 0 0 0 0 0 0 0
0 -1 -1 0 0 0 -2 -1 -6 0 0 0 0 0 0 0 0 0 0 0 0 0 0 0 0 0 0 0 0 0 0 -1 0 -1 0 -1 0 0 0 0 0 0 0 0
0 -2 0 0 0 -7 -5 0 0 0 0 0 0 0 0 0 0 0 0 0 0 0 0 0 0 0 0 0 0 0 -1 0 0 0 0 0 0 0 0 0 0 0 0 0
0 0 0 -2 0 0 -1 0 0 -1 0 0 0 0 0 0 0 0 0 0 0 0 0 0 0 0 0 0 0 -1 0 0 0 0 -4 -1 0 0 -3 0 0 0 0 0
Wind_Speed
5 12 5 11 7 8 5 5 4 4 5 7 4 6 5 4 3 5 4 4 4 6 13 12 7 6 8 5 5 6 6 6 4 3 4 4 3 4 5 5 6 6 7 9
9 6 5 2 3 3 3 5 2 1 3 6 3 5 5 8 7 8 9 10 10 12 12 11 12 12 11 9 8 6 6 5 4 2 5 3 5 5 6 5 7 8 6 8
9 10 2 3 2 7 3 7 6 10 7 10 9 8 11 9 12 11 13 14 13 11 11 10 11 11 10 10 8 8 7 7 7 7 3 5 5 5 5 6 9 9 11 11
6 4 0 1 2 8 9 4 8 10 9 8 12 4 9 12 11 10 10 10 9 9 9 9 10 10 10 9 7 7 6 6 6 7 6 5 5 7 8 8 9 11 14 14
6 3 1 1 5 7 6 8 8 8 10 11 11 10 12 11 9 9 9 9 8 8 8 9 9 9 9 7 6 5 5 5 6 5 5 6 9 9 9 9 10 12 12 13
8 2 4 7 5 4 7 8 6 7 6 6 3 8 14 8 8 6 9 8 7 8 7 6 6 4 7 5 5 5 6 7 5 7 8 8 9 9 9 10 10 9 10 11
6 4 5 6 10 6 8 7 4 4 4 2 6 7 11 8 7 7 7 7 7 7 6 5 5 6 5 5 6 7 9 10 9 8 8 9 10 11 11 12 10 14 11 11
4 8 6 7 6 7 5 7 4 5 3 5 7 6 9 10 9 8 6 5 5 5 4 4 3 5 7 7 7 7 10 11 12 11 11 10 12 9 10 12 12 11 11 11
4 6 5 5 5 7 4 4 3 2 1 3 5 7 10 11 9 5 4 3 5 4 4 4 6 7 8 10 10 8 11 14 14 14 11 12 11 12 12 14 13 11 13 11
4 2 1 3 4 3 7 3 4 1 3 4 1 7 4 12 9 8 4 8 7 4 4 7 8 10 9 11 10 10 11 13 12 10 9 10 12 13 13 12 14 14 12 12
6 4 5 4 2 9 2 1 4 5 4 5 5 4 9 5 3 5 8 9 10 7 8 9 10 10 10 9 10 12 14 13 12 12 12 12 12 12 11 11 11 11 12 11
6 2 3 5 4 4 5 4 6 3 4 3 4 8 8 6 3 3 9 8 4 8 10 10 9 8 8 10 12 12 10 10 11 12 13 13 11 10 11 12 12 10 11 11
6 1 4 5 8 5 5 1 2 2 3 10 7 6 2 4 5 6 10 7 6 9 13 13 12 13 11 11 11 9 10 11 13 13 13 13 12 12 11 11 10 10 10 10
3 2 4 6 10 9 8 10 9 9 8 10 11 16 15 10 10 13 12 4 10 11 11 10 13 15 12 11 8 9 10 12 12 12 12 12 10 9 8 8 8 10 10 12
4 3 5 9 12 12 12 13 13 14 14 14 16 17 16 13 11 11 9 10 14 16 15 14 15 13 11 10 10 10 11 12 11 12 11 11 5 8 8 10 10 10 12 12
2 0 4 4 6 9 13 16 17 16 10 14 13 16 8 8 9 10 15 16 15 16 14 14 14 13 12 12 11 11 12 12 10 10 11 9 7 9 10 10 11 11 12 12
2 1 3 4 11 13 6 3 1 4 6 8 11 11 11 10 13 15 12 14 12 12 11 13 13 12 12 12 11 13 12 12 12 11 12 9 8 9 10 11 11 11 11 12
4 2 2 4 6 3 5 6 12 10 8 8 11 11 8 10 17 22 10 10 10 8 12 14 12 13 13 14 13 14 13 14 14 14 8 8 8 9 10 10 11 11 11 11
3 4 2 2 5 13 10 4 4 9 13 13 7 7 14 17 15 6 6 8 12 12 12 12 13 15 16 15 14 13 15 15 16 14 12 7 8 11 9 10 10 10 10 11
4 1 4 3 4 4 4 1 0 5 12 9 9 16 17 16 13 9 9 15 13 13 13 14 14 16 16 17 16 16 17 16 17 13 8 9 9 10 9 9 10 10 11 11
3 1 5 6 6 8 9 3 4 6 4 11 13 10 9 8 9 12 13 12 13 14 16 15 15 14 17 17 18 19 18 16 15 11 9 9 9 11 8 8 10 11 11 11
8 6 4 4 4 7 3 5 1 8 11 8 8 6 6 10 11 10 11 13 15 16 17 16 15 15 17 18 18 20 19 18 17 15 11 8 6 9 7 9 10 11 12 11
5 7 4 9 6 9 7 10 7 5 7 7 4 4 10 10 11 12 13 15 16 18 17 16 16 17 16 17 17 19 18 15 15 14 11 9 8 7 10 7 11 8 10 8
9 12 6 8 8 12 8 8 9 8 5 1 5 8 8 10 11 14 15 16 17 17 17 16 17 17 17 17 18 16 16 14 14 12 12 9 7 7 8 7 8 7 7 6
7 4 9 13 16 12 4 8 6 4 3 6 3 6 8 10 14 15 16 17 17 17 16 17 16 15 17 17 17 16 14 11 12 12 10 10 6 5 5 7 7 7 5 3
10 14 9 8 6 3 2 5 2 5 4 4 6 8 11 14 16 17 16 16 16 17 17 16 18 18 18 17 16 14 11 10 10 10 9 7 6 5 5 6 7 4 1 3
Wind_Direction
217 251 23 36 357 355 9 297 280 109 67 298 192 266 65 35 75 118 135 167 160 156 72 73 69 81 80 79 92 66 113 42 300 304 323 304 295 326 288 308 9 325 346 324
218 75 67 14 7 328 288 298 74 125 122 298 204 163 95 80 71 68 97 103 106 105 94 100 85 74 65 62 62 76 80 50 13 17 349 340 321 309 326 289 348 300 334 304
26 85 111 295 27 324 97 333 15 316 311 260 265 174 153 108 98 94 77 68 73 99 112 94 78 70 67 60 59 67 68 58 45 356 10 345 302 268 303 329 305 311 307 307
72 99 194 284 55 334 296 40 307 284 268 256 208 167 151 142 115 102 97 86 82 92 84 73 79 79 81 76 73 76 55 48 44 30 8 346 319 309 329 292 313 330 310 294
103 150 252 308 12 328 22 321 294 281 265 276 196 258 116 156 133 112 85 67 64 71 61 69 76 83 73 66 60 40 23 29 30 359 332 319 318 324 325 312 302 322 307 321
101 91 15 8 300 288 298 263 237 256 250 241 86 282 146 139 103 127 90 67 58 61 76 82 81 93 102 78 39 10 345 343 344 338 334 333 321 306 312 317 315 317 324 315
169 84 110 350 297 182 303 291 260 209 192 278 91 268 66 96 94 66 84 85 65 62 73 72 59 36 39 4 355 340 343 335 338 331 317 314 315 318 314 323 326 325 318 318
233 164 1 9 16 338 358 322 2 300 339 333 144 264 123 121 116 123 112 98 60 70 78 51 15 337 346 343 333 330 325 319 332 329 327 325 326 327 328 334 329 318 315 316
305 102 124 49 19 321 21 33 1 228 119 247 274 130 154 156 145 142 122 341 23 4 339 332 350 350 346 340 337 339 330 326 323 325 336 332 328 327 328 332 325 323 321 320
55 210 76 87 259 104 348 39 248 127 293 288 287 304 3 170 199 168 328 5 331 323 306 339 331 335 338 335 331 323 315 321 338 326 324 331 329 332 333 326 329 327 322 333
360 301 116 251 26 354 173 187 319 312 336 298 302 312 32 41 46 4 328 342 331 337 326 328 337 335 325 321 317 330 333 334 327 338 337 330 327 334 326 324 324 321 322 325
39 358 282 14 70 348 326 338 316 302 307 248 313 290 66 46 34 286 301 326 333 304 324 321 326 349 332 322 327 334 328 330 336 330 332 323 319 316 318 330 347 337 336 329
16 92 289 184 162 171 278 221 332 351 298 255 254 266 162 224 242 325 341 13 307 323 332 337 328 318 320 329 325 326 334 335 332 325 322 321 330 351 332 331 326 317 312 308
307 323 302 314 322 323 289 269 262 254 256 267 274 289 295 335 346 352 338 328 321 321 320 320 333 327 330 308 327 329 324 325 324 326 319 324 351 321 314 297 299 323 319 313
315 271 328 299 300 304 301 289 278 266 259 254 278 286 310 331 356 330 325 319 323 328 331 338 326 323 317 315 320 314 324 319 324 317 318 323 328 302 321 315 313 320 325 318
61 235 334 276 293 311 305 289 276 264 282 279 294 298 356 327 327 319 339 335 317 322 342 337 314 313 312 315 308 323 306 323 317 310 316 312 328 326 310 315 314 320 321 319
313 295 344 276 337 322 276 222 73 302 262 266 284 288 317 318 355 350 329 305 320 345 329 303 297 302 307 309 321 302 317 312 319 314 304 339 312 312 314 313 320 320 320 315
142 139 63 292 305 299 61 258 298 290 290 283 298 309 353 356 342 325 18 3 335 313 295 286 309 309 314 312 302 311 318 315 307 292 304 295 299 303 296 313 311 324 319 320
241 156 132 266 281 294 297 74 3 328 302 296 322 359 333 344 320 313 42 332 311 297 289 309 318 314 313 311 302 314 313 306 309 317 318 301 285 280 303 305 323 315 314 310
74 59 238 170 259 267 22 46 307 304 279 47 348 328 333 330 311 333 342 321 315 303 307 310 313 313 312 313 315 308 306 308 303 303 304 301 289 282 287 303 312 308 307 313
115 198 217 221 252 267 290 53 296 283 2 324 352 6 358 324 316 311 291 302 298 307 304 310 303 317 318 326 319 310 304 299 305 322 307 291 305 294 298 306 297 308 319 323
182 180 198 215 245 266 178 217 152 303 309 13 34 41 334 287 286 293 305 313 309 305 311 322 327 323 324 320 321 315 313 330 340 337 327 338 336 298 301 298 306 318 331 326
253 213 247 201 232 308 273 280 343 344 13 7 8 294 272 296 316 324 313 308 318 325 324 327 323 320 322 327 324 322 326 326 324 316 304 280 274 262 273 310 302 332 311 343
280 262 217 283 266 295 324 351 57 42 24 337 242 283 315 315 316 308 319 323 325 325 326 321 323 323 321 325 326 329 331 333 316 323 316 305 290 288 319 310 323 324 343 336
261 284 243 259 290 335 57 63 68 326 288 255 291 313 313 312 316 321 323 325 325 323 327 328 315 312 318 325 325 330 340 322 330 319 317 305 295 310 316 319 326 333 340 341
250 257 255 267 331 186 44 84 89 257 257 347 320 320 318 322 320 326 323 321 321 329 312 309 316 320 323 326 337 336 326 343 323 320 312 332 331 336 345 313 324 105 75 199